W5CGC Weather Reports


time (UTC)temp
C
wind
direction
speed
KPH
gust
KPH
rain 1hr
cm
rain 24hr
cm
rain mn
cm
humidity
%
barometer
mb
20260901014546 30 0 0.0 0.0 0.00 0.00 0.00 29 1013.3
20260901013046 31 0 0.0 0.0 0.00 0.00 0.00 28 1013.3
20260901011541 32 0 0.0 0.0 0.00 0.00 0.00 27 1013.2
20260901010048 32 0 0.0 1.6 0.00 0.00 0.00 25 1013.2
20260901004556 33 0 0.0 1.6 0.00 0.00 0.00 24 1013.1
20260901003044 34 0 0.0 3.2 0.00 0.00 0.00 22 1013.1
20260901001538 35 0 0.0 6.4 0.00 0.00 0.00 21 1013.1
20260901000045 35 134 0.0 8.0 0.00 0.00 0.00 20 1013.1
20260831234543 35 117 1.6 11.3 0.00 0.00 0.00 20 1013.1
20260831233041 35 116 3.2 9.7 0.00 0.00 0.00 20 1013.0
20260831231541 35 117 1.6 3.2 0.00 0.00 0.00 22 1013.0
20260831230045 36 167 1.6 9.7 0.00 0.00 0.00 20 1013.0
20260831224546 37 101 3.2 14.5 0.00 0.00 0.00 17 1013.1
20260831223040 36 264 1.6 4.8 0.00 0.00 0.00 20 1013.2
20260831221539 36 117 1.6 9.7 0.00 0.00 0.00 18 1013.2
20260831220044 37 122 1.6 8.0 0.00 0.00 0.00 18 1013.5
20260831214601 37 170 1.6 8.0 0.00 0.00 0.00 18 1013.6
20260831213040 37 179 3.2 12.9 0.00 0.00 0.00 18 1013.9
20260831211542 38 118 3.2 16.1 0.00 0.00 0.00 16 1013.9
20260831210042 37 133 3.2 14.5 0.00 0.00 0.00 18 1014.0
20260831204539 37 75 1.6 8.0 0.00 0.00 0.00 19 1014.3
20260831203038 37 115 3.2 11.3 0.00 0.00 0.00 18 1014.6
20260831201541 37 262 3.2 11.3 0.00 0.00 0.00 19 1014.6
20260831200046 38 155 3.2 12.9 0.00 0.00 0.00 18 1014.7
20260831194547 39 152 0.0 11.3 0.00 0.00 0.00 19 1014.9
20260831193043 38 141 1.6 9.7 0.00 0.00 0.00 16 1015.2
20260831191540 38 150 1.6 12.9 0.00 0.00 0.00 19 1015.4
20260831190059 37 136 1.6 11.3 0.00 0.00 0.00 20 1015.5
20260831184546 37 44 1.6 11.3 0.00 0.00 0.00 21 1015.6
20260831183052 36 169 1.6 14.5 0.00 0.00 0.00 23 1015.6
20260831181545 36 65 1.6 17.7 0.00 0.00 0.00 25 1016.0
20260831180046 36 169 1.6 16.1 0.00 0.00 0.00 25 1016.2
20260831174543 36 0 3.2 9.7 0.00 0.00 0.00 27 1016.4
20260831173042 35 118 0.0 14.5 0.00 0.00 0.00 27 1016.7
20260831171543 35 177 1.6 9.7 0.00 0.00 0.00 26 1016.8
20260831170043 35 149 0.0 8.0 0.00 0.00 0.00 27 1016.8
20260831164551 34 119 1.6 9.7 0.00 0.00 0.00 28 1016.9
20260831163044 33 0 0.0 4.8 0.00 0.00 0.00 30 1016.9
20260831161546 33 236 0.0 3.2 0.00 0.00 0.00 31 1017.1
20260831160105 32 0 0.0 6.4 0.00 0.00 0.00 32 1017.1
20260831154619 32 0 0.0 4.8 0.00 0.00 0.00 34 1017.2
20260831153040 31 136 0.0 8.0 0.00 0.00 0.00 35 1017.0
20260831151540 31 120 0.0 4.8 0.00 0.00 0.00 38 1016.9
20260831150047 30 0 0.0 3.2 0.00 0.00 0.00 41 1016.8
20260831144545 30 0 0.0 3.2 0.00 0.00 0.00 44 1016.8
20260831143040 29 0 0.0 6.4 0.00 0.00 0.00 46 1016.8
20260831141541 28 0 0.0 8.0 0.00 0.00 0.00 48 1017.0
20260831140042 28 0 0.0 1.6 0.00 0.00 0.00 51 1016.9
20260831134544 27 0 0.0 0.0 0.00 0.00 0.00 52 1016.7
20260831133047 27 0 0.0 1.6 0.00 0.00 0.00 54 1016.3
20260831131544 27 117 0.0 3.2 0.00 0.00 0.00 54 1016.0
20260831130052 26 0 0.0 4.8 0.00 0.00 0.00 55 1015.8
20260831124548 26 0 0.0 3.2 0.00 0.00 0.00 56 1015.7
20260831123042 26 0 0.0 1.6 0.00 0.00 0.00 55 1015.4
20260831121541 26 0 0.0 8.0 0.00 0.00 0.00 54 1015.2
20260831120056 26 124 0.0 6.4 0.00 0.00 0.00 53 1015.1
20260831114542 26 116 0.0 6.4 0.00 0.00 0.00 53 1014.9
20260831113107 26 129 0.0 6.4 0.00 0.00 0.00 53 1014.9
20260831111541 27 0 0.0 3.2 0.00 0.00 0.00 52 1014.7
20260831110041 27 117 0.0 4.8 0.00 0.00 0.00 51 1014.6
20260831104544 27 115 0.0 8.0 0.00 0.00 0.00 50 1014.4
20260831103047 27 0 0.0 6.4 0.00 0.00 0.00 50 1014.5
20260831101548 27 123 0.0 3.2 0.00 0.00 0.00 49 1014.5
20260831100043 27 112 0.0 3.2 0.00 0.00 0.00 49 1014.4
20260831094553 27 116 0.0 4.8 0.00 0.00 0.00 48 1014.4
20260831093041 27 117 0.0 3.2 0.00 0.00 0.00 47 1014.4
20260831091546 27 116 0.0 3.2 0.00 0.00 0.00 47 1014.4
20260831090046 27 0 0.0 4.8 0.00 0.00 0.00 45 1014.3
20260831084542 28 116 0.0 6.4 0.00 0.00 0.00 44 1014.2
20260831083045 28 115 0.0 4.8 0.00 0.00 0.00 43 1014.3
20260831081541 28 122 0.0 6.4 0.00 0.00 0.00 42 1014.3
20260831080043 28 115 1.6 8.0 0.00 0.00 0.00 41 1014.3
20260831074547 28 104 1.6 6.4 0.00 0.00 0.00 40 1014.2
20260831073046 28 115 1.6 3.2 0.00 0.00 0.00 40 1014.1
20260831071545 28 96 0.0 4.8 0.00 0.00 0.00 40 1014.1
20260831070048 27 119 1.6 3.2 0.00 0.00 0.00 41 1014.1
20260831064547 27 0 0.0 0.0 0.00 0.00 0.00 42 1014.2
20260831063043 28 0 0.0 1.6 0.00 0.00 0.00 41 1014.3
20260831061540 28 0 0.0 1.6 0.00 0.00 0.00 40 1014.1
20260831060044 28 0 0.0 1.6 0.00 0.00 0.00 41 1014.1
20260831054543 28 0 0.0 1.6 0.00 0.00 0.00 41 1014.2
20260831053042 28 0 0.0 1.6 0.00 0.00 0.00 41 1014.1
20260831051551 27 0 0.0 0.0 0.00 0.00 0.00 43 1014.0
20260831050045 27 0 0.0 0.0 0.00 0.00 0.00 42 1013.9
20260831044541 28 0 0.0 0.0 0.00 0.00 0.00 40 1013.8
20260831043041 29 0 0.0 0.0 0.00 0.00 0.00 37 1013.9
20260831041548 30 0 0.0 1.6 0.00 0.00 0.00 36 1013.8
20260831040044 30 0 0.0 1.6 0.00 0.00 0.00 35 1013.8
20260831034548 30 0 0.0 1.6 0.00 0.00 0.00 34 1013.8
20260831033038 31 0 0.0 1.6 0.00 0.00 0.00 33 1013.7
20260831031540 31 0 0.0 1.6 0.00 0.00 0.00 33 1013.6
20260831030042 30 0 0.0 0.0 0.00 0.00 0.00 34 1013.5
20260831024545 31 0 0.0 0.0 0.00 0.00 0.00 32 1013.3
20260831023041 31 0 0.0 0.0 0.00 0.00 0.00 31 1013.2
20260831021541 31 0 0.0 1.6 0.00 0.00 0.00 31 1012.9
20260831020052 31 0 0.0 1.6 0.00 0.00 0.00 30 1012.6